This is the latest recevied weather packets stored in our database for station/object KN6KDD. If no packets are shown the sender has not sent any weather packets the latest 10 day(s).
| Time | Temp. | Humidity | Pressure | Rain* | Wind** | Luminosity | Snow |
|---|---|---|---|---|---|---|---|
| 1777429263 | 17.22° C | 52% | 1359.1 hPa | 0 mm | - | 30 W/m² | - |
| 1777428958 | 17.78° C | 53% | 1359.1 hPa | 0 mm | - | 35 W/m² | - |
| 1777428655 | 17.78° C | 50% | 1359 hPa | 0 mm | - | 38 W/m² | - |
| 1777428351 | 17.78° C | 53% | 1359.1 hPa | 0 mm | - | 43 W/m² | - |
| 1777428046 | 17.78° C | 53% | 1359.1 hPa | 0 mm | - | 42 W/m² | - |
| 1777427742 | 17.78° C | 52% | 1359.2 hPa | 0 mm | - | 45 W/m² | - |
| 1777427440 | 18.33° C | 51% | 1359.3 hPa | 0 mm | - | 50 W/m² | - |
| 1777427135 | 18.89° C | 48% | 1359.5 hPa | 0 mm | - | 56 W/m² | - |
| 1777426834 | 18.89° C | 50% | 1359.1 hPa | 0 mm | - | 105 W/m² | - |
| 1777426531 | 18.89° C | 49% | 1359.1 hPa | 0 mm | - | 95 W/m² | - |
| 1777426226 | 19.44° C | 48% | 1359.2 hPa | 0 mm | - | 138 W/m² | - |
| 1777425921 | 20.56° C | 47% | 1359.2 hPa | 0 mm | - | 153 W/m² | - |
| 1777425617 | 20.56° C | 48% | 1359.2 hPa | 0 mm | - | 166 W/m² | - |
| 1777425313 | 20.56° C | 50% | 1359.2 hPa | 0 mm | - | 182 W/m² | - |
| 1777425010 | 20° C | 51% | 1359.2 hPa | 0 mm | - | 197 W/m² | - |
| 1777424705 | 20° C | 50% | 1359.1 hPa | 0 mm | - | 216 W/m² | - |
| 1777424400 | 20.56° C | 51% | 1359.3 hPa | 0 mm | - | 231 W/m² | - |
| 1777424096 | 20° C | 52% | 1359.2 hPa | 0 mm | - | 245 W/m² | - |
| 1777423794 | 20.56° C | 49% | 1359.3 hPa | 0 mm | - | 259 W/m² | - |
| 1777423490 | 21.11° C | 49% | 1359 hPa | 0 mm | - | 276 W/m² | - |
| 1777423185 | 20.56° C | 51% | 1359.1 hPa | 0 mm | - | 294 W/m² | - |
| 1777422884 | 20° C | 50% | 1359.1 hPa | 0 mm | - | 312 W/m² | - |
| 1777422581 | 20.56° C | 52% | 1358.8 hPa | 0 mm | - | 328 W/m² | - |
| 1777422277 | 20.56° C | 49% | 1359 hPa | 0 mm | - | 348 W/m² | - |
| 1777421977 | 20.56° C | 54% | 1359.2 hPa | 0 mm | - | 367 W/m² | - |
* Rain latest hour (hover to see other rain measurements)
** Current wind speed in m/s (hover to see current wind gust speed)